PBO Station Position Time Series. Reference Frame : NAM14
Format Version,1.1.1
4-character ID,AC29
Station name,middleton_AK2014
Begin Date, 2014-08-18
End Date, 2023-06-26
Release Date, 2023-06-27
Reference position, 59.4295889589 North Latitude, -146.3399756905 East Longitude, 56.55274 meters elevation,
Date, North (mm), East (mm), Vertical (mm), North Std. Deviation (mm), East Std. Deviation (mm),              Vertical Std. Deviation (mm), Quality,
2014-08-18,0.00, 0.00, 0.00, 2.31, 1.51, 7.13, repro,
2014-08-19,0.29, -1.21, 2.19, 2.32, 1.52, 7.16, repro,
2014-08-20,1.75, -1.58, -0.78, 2.37, 1.55, 7.24, repro,
2014-08-21,3.33, -2.56, 2.87, 2.32, 1.52, 7.17, repro,
2014-08-22,3.03, -2.80, 3.90, 2.32, 1.52, 7.19, repro,
2014-08-23,1.71, -2.09, -0.15, 2.33, 1.52, 7.20, repro,
2014-08-24,2.02, -1.44, -0.88, 2.31, 1.51, 7.13, repro,
2014-08-25,1.76, -0.93, 6.60, 2.30, 1.51, 7.11, repro,
2014-08-26,2.14, -0.07, -0.97, 2.34, 1.54, 7.26, repro,
2014-08-27,0.91, -2.29, -1.79, 2.46, 1.59, 7.59, repro,
2014-08-28,1.81, -2.43, 5.62, 2.36, 1.55, 7.35, repro,
2014-08-29,1.50, -1.77, 5.91, 2.31, 1.51, 7.16, repro,
2014-08-30,1.04, -2.09, 7.61, 2.30, 1.51, 7.12, repro,
2014-08-31,0.32, 0.47, 3.11, 2.28, 1.51, 7.08, repro,
2014-09-01,0.50, -1.48, 3.51, 2.30, 1.52, 7.15, repro,
2014-09-02,0.62, -1.40, -1.83, 2.29, 1.53, 7.17, repro,
2014-09-03,1.61, -1.40, 1.92, 2.30, 1.52, 7.18, repro,
2014-09-04,2.36, -1.49, 1.40, 2.30, 1.52, 7.17, repro,
2014-09-05,1.99, -0.23, -2.79, 2.30, 1.53, 7.19, repro,
2014-09-06,1.97, -0.83, -1.28, 2.30, 1.53, 7.19, repro,
2014-09-07,1.29, -2.48, 3.74, 2.30, 1.54, 7.21, repro,
2014-09-08,2.94, -2.20, -1.71, 2.29, 1.53, 7.21, repro,
2014-09-09,1.30, -1.91, 2.69, 2.29, 1.52, 7.20, repro,
2014-09-10,1.64, -1.26, -4.46, 2.28, 1.52, 7.15, repro,
2014-09-11,1.19, -0.63, -4.77, 2.27, 1.52, 7.14, repro,
2014-09-12,0.27, -1.10, -3.80, 2.28, 1.52, 7.16, repro,
2014-09-13,2.37, -3.23, 5.35, 2.29, 1.53, 7.18, repro,
2014-09-14,3.63, -2.20, 6.22, 2.39, 1.56, 7.34, repro,
2014-09-15,3.65, -1.38, 1.05, 2.31, 1.52, 7.22, repro,
2014-09-16,1.74, -1.39, 0.04, 2.28, 1.52, 7.13, repro,
2014-09-17,2.31, -0.66, 10.01, 2.29, 1.53, 7.19, repro,
2014-09-18,3.73, -2.49, 6.30, 2.33, 1.55, 7.18, repro,
2014-09-19,2.64, -3.24, 8.43, 2.31, 1.55, 7.30, repro,
2014-09-20,1.73, -2.52, 4.94, 2.28, 1.50, 7.07, repro,
2014-09-21,-0.05, -2.01, -2.56, 2.28, 1.49, 7.03, repro,
2014-09-22,1.70, -1.68, 4.62, 2.27, 1.51, 7.05, repro,
2014-09-23,1.99, -3.01, 7.23, 2.27, 1.50, 7.07, repro,
2014-09-24,0.72, -2.96, 7.06, 2.28, 1.51, 7.08, repro,
2014-09-25,1.61, -3.61, 1.57, 2.28, 1.51, 7.14, repro,
2014-09-26,2.39, -2.50, -0.28, 2.29, 1.51, 7.12, repro,
2014-09-27,0.11, -2.77, 2.24, 2.29, 1.50, 7.11, repro,
2014-09-28,0.74, -3.86, 8.45, 2.33, 1.55, 7.20, repro,
2014-09-29,0.15, -3.28, 3.96, 2.26, 1.51, 7.07, repro,
2014-09-30,1.76, -4.07, 9.62, 2.28, 1.51, 7.13, repro,
2014-10-01,1.20, -3.91, 3.85, 2.29, 1.51, 7.13, repro,
2014-10-02,0.84, -3.94, 7.63, 2.33, 1.52, 7.24, repro,
2014-10-03,1.50, -3.56, 11.02, 2.28, 1.51, 7.11, repro,
2014-10-04,1.12, -2.55, 7.00, 2.27, 1.51, 7.06, repro,
2014-10-05,1.96, -2.97, 0.61, 2.26, 1.50, 7.04, repro,
2014-10-06,0.57, -3.28, 10.14, 2.26, 1.51, 7.07, repro,
2014-10-07,1.31, -2.60, 2.75, 2.28, 1.49, 7.06, repro,
2014-10-08,1.31, -2.23, 7.22, 2.28, 1.52, 7.13, repro,
2014-10-09,0.96, -2.12, 12.61, 2.30, 1.52, 7.18, repro,
2014-10-10,-0.08, -2.17, 10.34, 2.25, 1.50, 7.06, repro,
2014-10-11,-1.55, -1.60, 17.15, 2.26, 1.51, 7.11, repro,
2014-10-12,-0.16, -2.27, 10.36, 2.26, 1.49, 7.07, repro,
2014-10-13,-0.26, -2.44, 11.85, 2.27, 1.50, 7.07, repro,
2014-10-14,-0.52, -2.08, 14.89, 2.28, 1.52, 7.17, repro,
2014-10-15,0.69, -1.89, 7.23, 2.27, 1.51, 7.11, repro,
2014-10-16,0.19, -2.08, 4.99, 2.25, 1.50, 7.02, repro,
2014-10-17,-0.36, -1.96, 4.52, 2.26, 1.49, 7.06, repro,
2014-10-18,-1.29, -1.25, 6.59, 2.26, 1.50, 7.08, repro,
2014-10-19,-0.18, -1.03, 9.36, 2.29, 1.52, 7.17, repro,
2014-10-20,-1.83, -2.41, 12.63, 2.32, 1.54, 7.22, repro,
2014-10-21,-0.75, -1.36, 11.35, 2.31, 1.54, 7.30, repro,
2014-10-22,-1.08, -1.56, 13.36, 2.31, 1.53, 7.24, repro,
2014-10-23,-0.86, -2.10, 7.50, 2.27, 1.51, 7.10, repro,
2014-10-24,0.39, -2.45, 7.76, 2.27, 1.50, 7.06, repro,
2014-10-25,-0.29, -1.47, 3.60, 2.24, 1.50, 7.02, repro,
2014-10-26,0.27, -1.97, 7.58, 2.27, 1.51, 7.10, repro,
2014-10-27,0.09, -1.88, 9.42, 2.32, 1.54, 7.22, repro,
2014-10-28,0.19, -1.81, 5.87, 2.35, 1.54, 7.43, repro,
2014-10-29,-1.06, -2.16, 9.46, 2.25, 1.50, 7.04, repro,
2014-10-30,0.39, -1.70, 0.45, 2.23, 1.48, 7.01, repro,
2014-10-31,-0.27, -1.54, 4.95, 2.32, 1.51, 7.21, repro,
2014-11-01,-0.34, -2.04, 10.53, 2.32, 1.52, 7.20, repro,
2014-11-02,-1.14, -1.43, 10.16, 2.33, 1.54, 7.24, repro,
2014-11-03,1.00, -1.73, 9.07, 2.33, 1.52, 7.22, repro,
2014-11-04,1.80, -1.38, 4.39, 2.41, 1.62, 7.47, repro,
2014-11-05,1.46, -1.92, 4.15, 2.32, 1.55, 7.23, repro,
2014-11-06,0.86, -2.38, 4.67, 2.30, 1.53, 7.14, repro,
2014-11-07,0.20, -1.72, 5.07, 2.31, 1.55, 7.24, repro,
2014-11-08,1.63, -1.56, 7.45, 2.32, 1.54, 7.27, repro,
2014-11-09,2.84, -1.25, 4.20, 2.30, 1.54, 7.21, repro,
2014-11-10,1.59, -0.92, 1.57, 2.36, 1.59, 7.48, repro,
2014-11-11,1.69, -3.09, 2.85, 2.31, 1.54, 7.20, repro,
2014-11-12,1.27, -2.25, 3.98, 2.32, 1.54, 7.20, repro,
2014-11-13,0.41, -1.53, 3.02, 2.32, 1.53, 7.21, repro,
2014-11-14,1.65, -2.34, 3.35, 2.32, 1.54, 7.21, repro,
2014-11-15,1.37, -2.47, 2.76, 2.30, 1.55, 7.15, repro,
2014-11-16,1.34, -1.95, 0.63, 2.31, 1.54, 7.16, repro,
2014-11-17,1.09, -2.52, 2.65, 2.36, 1.55, 7.22, repro,
2014-11-18,1.64, -2.57, 3.02, 2.33, 1.54, 7.20, repro,
2014-11-19,1.93, -2.47, 12.25, 2.33, 1.52, 7.16, repro,
2014-11-20,2.07, -2.34, 10.21, 2.33, 1.56, 7.35, repro,
2014-11-21,0.27, -2.88, 19.93, 2.41, 1.61, 7.61, repro,
2014-11-22,0.01, -2.54, 17.55, 2.35, 1.58, 7.46, repro,
2014-11-23,0.12, -1.58, 12.52, 2.32, 1.55, 7.32, repro,
2014-11-24,1.17, -0.73, 11.73, 2.34, 1.56, 7.40, repro,
2014-11-25,1.45, -2.28, 6.14, 2.35, 1.56, 7.40, repro,
2014-11-26,0.87, -2.12, -1.26, 2.30, 1.57, 7.33, repro,
2014-11-27,1.64, -1.89, -0.79, 2.28, 1.52, 7.06, repro,
2014-11-28,1.40, -2.44, 9.74, 2.29, 1.52, 7.10, repro,
2014-11-29,0.35, -1.88, 11.15, 2.32, 1.53, 7.18, repro,
2014-11-30,0.56, -1.42, 5.23, 2.40, 1.58, 7.39, repro,
2014-12-01,1.38, -1.49, 8.92, 2.30, 1.55, 7.20, repro,
2014-12-02,0.61, -0.86, 7.92, 2.29, 1.53, 7.11, repro,
2014-12-03,0.32, -1.58, 2.37, 2.28, 1.52, 7.10, repro,
2014-12-04,1.50, -3.01, 7.15, 2.32, 1.54, 7.23, repro,
2014-12-05,1.82, -1.94, 9.98, 2.31, 1.53, 7.24, repro,
2014-12-06,1.11, -1.48, 2.40, 2.29, 1.54, 7.17, repro,
2014-12-07,1.95, -1.70, 4.23, 2.28, 1.55, 7.19, repro,
2014-12-08,1.38, -1.88, 8.64, 2.28, 1.53, 7.08, repro,
2014-12-09,1.98, -1.47, 5.67, 2.28, 1.52, 7.09, repro,
2014-12-10,-1.11, -1.54, 13.79, 2.29, 1.53, 7.20, repro,
2014-12-11,-0.20, -2.07, 8.05, 2.37, 1.58, 7.33, repro,
2014-12-12,-0.29, -1.53, 11.42, 2.28, 1.55, 7.18, repro,
2014-12-13,-0.48, -2.27, 0.47, 2.24, 1.51, 6.96, repro,
2014-12-14,0.24, -2.89, 6.50, 2.24, 1.51, 6.96, repro,
2014-12-15,-0.85, -2.00, 6.20, 2.35, 1.57, 7.25, repro,
2014-12-16,0.08, -2.71, 10.03, 2.35, 1.56, 7.35, repro,
2014-12-17,1.80, -3.07, 6.47, 2.27, 1.54, 7.14, repro,
2014-12-18,0.39, -2.93, 8.79, 2.24, 1.52, 7.02, repro,
2014-12-19,1.00, -3.56, 4.24, 2.29, 1.54, 7.18, repro,
2014-12-20,-0.10, -3.86, 13.28, 2.25, 1.51, 7.01, repro,
2014-12-21,2.47, -3.11, 7.39, 2.31, 1.52, 7.16, repro,
2014-12-22,0.65, -1.98, 0.62, 2.29, 1.55, 7.25, repro,
2014-12-23,-1.24, -1.55, -0.58, 2.26, 1.52, 7.02, repro,
2014-12-24,-0.29, -2.03, 4.30, 2.28, 1.51, 7.09, repro,
2014-12-25,-0.62, -2.79, 10.07, 2.34, 1.57, 7.41, repro,
2014-12-26,-0.05, -3.00, 5.27, 2.27, 1.52, 7.07, repro,
2014-12-27,-0.14, -1.92, 0.38, 2.27, 1.51, 7.05, repro,
2014-12-28,1.02, -1.47, -8.65, 2.29, 1.54, 7.33, repro,
2014-12-29,-0.15, -2.79, -2.29, 2.29, 1.53, 7.17, repro,
2014-12-30,1.26, -2.69, -3.14, 2.28, 1.53, 7.32, repro,
2014-12-31,-0.08, -2.30, -2.41, 2.25, 1.50, 7.05, repro,
2015-01-01,0.61, -3.44, 4.78, 2.26, 1.50, 7.06, repro,
2015-01-02,-0.26, -3.02, 4.00, 2.26, 1.52, 7.06, repro,
2015-01-03,0.23, -3.17, -4.37, 2.28, 1.53, 7.33, repro,
2015-01-04,0.66, -1.52, -2.24, 2.38, 1.59, 7.52, repro,
2015-01-05,2.84, -2.51, -0.22, 2.28, 1.53, 7.14, supp6,
2015-01-06,1.82, -3.13, -1.96, 2.33, 1.55, 7.43, repro,
2015-01-07,0.41, -2.62, -0.90, 2.58, 1.74, 7.98, repro,
2015-01-08,0.05, -3.36, 1.07, 2.28, 1.52, 7.04, repro,
2015-01-09,0.73, -2.58, -1.62, 2.34, 1.55, 7.20, repro,
2015-01-10,-0.26, -1.93, -0.19, 2.29, 1.52, 7.13, repro,
2015-01-11,0.23, -2.59, 1.11, 2.32, 1.55, 7.44, repro,
2015-01-12,0.81, -2.74, -0.11, 2.30, 1.52, 7.12, repro,
2015-01-13,1.23, -2.03, 0.20, 2.28, 1.53, 7.09, repro,
2015-01-14,0.49, -3.12, 9.77, 2.27, 1.52, 7.05, repro,
2015-01-15,-0.46, -1.68, 4.40, 2.28, 1.52, 7.09, repro,
2015-01-16,0.12, -1.58, 14.12, 2.32, 1.56, 7.46, repro,
2015-01-17,-0.16, -3.00, 8.04, 2.44, 1.64, 7.97, repro,
2015-01-18,-0.42, -1.81, 0.80, 2.32, 1.55, 7.43, repro,
2015-01-19,0.42, -1.95, 0.29, 2.28, 1.52, 7.08, repro,
2015-01-20,3.25, -1.65, -0.69, 2.30, 1.52, 7.12, repro,
2015-01-21,0.66, -2.48, 4.25, 2.28, 1.53, 7.15, repro,
2015-01-22,0.90, -1.00, 2.49, 2.36, 1.60, 7.67, repro,
2015-01-23,-0.50, -1.63, 0.95, 2.35, 1.59, 7.72, repro,
2015-01-24,1.00, -1.40, 2.81, 2.30, 1.55, 7.34, repro,
2015-01-25,0.11, -1.65, 1.40, 2.29, 1.53, 7.13, repro,
2015-01-26,2.42, -1.77, 2.24, 2.32, 1.56, 7.36, repro,
2015-01-27,1.76, -2.23, -3.12, 2.29, 1.53, 7.20, repro,
2015-01-28,2.06, -3.03, -5.48, 2.31, 1.55, 7.31, repro,
2015-01-29,2.35, -2.55, -11.75, 2.36, 1.60, 7.64, repro,
2015-01-30,2.18, -2.20, -9.31, 2.29, 1.54, 7.25, repro,
2015-01-31,2.52, -2.01, -7.13, 2.31, 1.54, 7.29, repro,
2015-02-01,2.11, -1.57, -2.82, 2.26, 1.53, 7.14, repro,
2015-02-02,2.64, -2.35, 5.31, 2.31, 1.54, 7.25, repro,
2015-02-03,1.91, -2.42, 3.86, 2.35, 1.57, 7.32, repro,
2015-02-04,1.75, -1.55, 0.28, 2.28, 1.54, 7.24, repro,
2015-02-05,1.34, -1.39, -1.21, 2.30, 1.53, 7.19, repro,
2015-02-06,1.80, -3.91, 4.88, 2.29, 1.54, 7.38, repro,
2015-02-07,1.62, -2.22, 2.41, 2.33, 1.58, 7.44, repro,
2015-02-08,1.45, -1.79, 1.92, 2.28, 1.54, 7.19, repro,
2015-02-09,3.06, -0.68, -5.39, 2.27, 1.52, 7.14, repro,
2015-02-10,4.20, -2.15, -1.18, 2.32, 1.56, 7.32, repro,
2015-02-11,1.31, -1.71, 2.73, 2.34, 1.54, 7.28, repro,
2015-02-12,2.74, -1.90, -0.66, 2.27, 1.53, 7.18, repro,
2015-02-13,1.80, -3.41, 3.89, 2.28, 1.53, 7.20, repro,
2015-02-14,3.38, -2.49, 0.83, 2.34, 1.57, 7.39, repro,
2015-02-15,3.89, -1.97, -3.37, 2.28, 1.53, 7.18, repro,
2015-02-16,3.82, -0.76, -4.32, 2.28, 1.53, 7.23, repro,
2015-02-17,2.74, -0.67, -5.20, 2.31, 1.54, 7.32, repro,
2015-02-18,2.05, -2.25, 0.10, 2.28, 1.54, 7.24, repro,
2015-02-19,2.89, -2.04, 2.02, 2.34, 1.56, 7.32, repro,
2015-02-20,3.81, -2.81, -8.31, 2.31, 1.55, 7.22, repro,
2015-02-21,3.00, -2.03, -1.34, 2.29, 1.54, 7.23, repro,
2015-02-22,3.22, -1.38, -7.19, 2.28, 1.54, 7.19, repro,
2015-02-23,1.22, -0.45, -3.47, 2.32, 1.56, 7.35, repro,
2015-02-24,3.53, -1.86, -3.04, 2.33, 1.57, 7.37, repro,
2015-02-25,3.06, -2.22, -0.96, 2.28, 1.53, 7.17, repro,
2015-02-26,4.69, -2.78, 0.53, 2.29, 1.54, 7.20, repro,
2015-02-27,3.07, -2.02, -1.56, 2.28, 1.52, 7.19, repro,
2015-02-28,2.53, -1.63, 2.38, 2.28, 1.53, 7.18, repro,
2015-03-01,1.87, -1.63, -1.61, 2.38, 1.60, 7.48, repro,
2015-03-02,3.22, -2.90, 0.97, 2.44, 1.62, 7.73, repro,
2015-03-03,1.83, -2.19, 0.13, 2.30, 1.53, 7.17, repro,
2015-03-04,1.50, -1.38, -2.08, 2.30, 1.52, 7.19, repro,
2015-03-05,3.47, -2.25, -1.91, 2.34, 1.58, 7.22, repro,
2015-03-06,1.13, -1.47, -2.24, 2.40, 1.61, 7.45, repro,
2015-03-07,1.80, -0.54, 0.15, 2.30, 1.53, 7.23, repro,
2015-03-08,1.85, -0.95, 9.11, 2.31, 1.53, 7.20, repro,
2015-03-09,3.01, -2.31, 8.70, 2.29, 1.53, 7.16, repro,
2015-03-10,2.06, -1.80, 2.45, 2.28, 1.52, 7.12, repro,
2015-03-11,2.34, -2.50, 2.68, 2.31, 1.53, 7.22, repro,
2015-03-12,0.76, -1.17, 9.37, 2.35, 1.56, 7.56, repro,
2015-03-13,1.02, -1.57, 11.37, 2.33, 1.53, 7.26, repro,
2015-03-14,1.39, -3.19, 13.24, 2.30, 1.52, 7.20, repro,
2015-03-15,3.63, -2.11, 8.74, 2.29, 1.53, 7.21, repro,
2015-03-16,2.85, -1.91, 1.35, 2.29, 1.52, 7.17, repro,
2015-03-17,3.14, -1.48, 2.62, 3.16, 2.03, 9.41, repro,
2015-03-18,5.45, -1.42, -5.83, 2.38, 1.56, 7.50, repro,
2015-03-19,4.10, -2.19, -1.87, 2.34, 1.54, 7.34, repro,
2015-03-20,3.92, -1.94, 0.20, 2.33, 1.55, 7.39, repro,
2015-03-21,3.53, -2.48, 2.67, 2.29, 1.52, 7.17, repro,
2015-03-22,2.28, -1.58, -2.60, 2.32, 1.53, 7.26, repro,
2015-03-23,4.33, -1.98, 1.27, 2.32, 1.52, 7.29, repro,
2015-03-24,3.64, -2.30, 2.17, 2.28, 1.51, 7.17, repro,
2015-03-25,4.07, -1.65, 4.24, 2.30, 1.53, 7.22, repro,
2015-03-26,5.16, -1.96, 4.26, 2.28, 1.52, 7.14, repro,
2015-03-27,4.53, -2.78, 0.67, 2.33, 1.54, 7.41, repro,
2015-03-28,4.71, -1.93, 1.76, 2.42, 1.59, 7.70, repro,
2015-03-29,5.64, -2.28, 8.36, 2.38, 1.56, 7.70, repro,
2015-03-30,4.75, -2.65, -1.28, 2.35, 1.57, 7.61, repro,
2015-03-31,4.33, -2.55, 2.44, 2.40, 1.58, 7.75, repro,
2015-04-01,4.76, -2.55, 7.25, 2.29, 1.53, 7.27, repro,
2015-04-02,4.21, -1.44, 1.27, 2.28, 1.52, 7.17, repro,
2015-04-03,5.27, -1.92, -7.33, 2.28, 1.51, 7.17, repro,
2015-04-04,5.40, -1.50, -5.41, 2.29, 1.51, 7.19, repro,
2015-04-05,5.02, -1.95, -1.23, 2.26, 1.52, 7.13, repro,
2015-04-06,4.51, -1.36, 8.74, 2.27, 1.51, 7.14, repro,
2015-04-07,3.86, -0.81, 6.35, 2.28, 1.51, 7.18, repro,
2015-04-08,5.38, -1.29, 4.13, 2.29, 1.51, 7.19, repro,
2015-04-09,5.59, -0.64, 3.49, 2.28, 1.51, 7.17, repro,
2015-04-10,4.53, -1.36, 8.48, 2.37, 1.57, 7.56, repro,
2015-04-11,7.28, -2.73, 1.86, 2.41, 1.58, 7.57, repro,
2015-04-12,3.79, -2.49, 5.74, 2.27, 1.51, 7.14, repro,
2015-04-13,3.64, -2.53, 2.47, 2.27, 1.51, 7.19, repro,
2015-04-14,5.89, -1.05, 2.99, 2.29, 1.52, 7.24, repro,
2015-04-15,4.65, -1.39, 1.03, 2.35, 1.60, 7.42, repro,
2015-04-16,3.76, -2.26, 1.48, 2.39, 1.61, 7.54, repro,
2015-04-17,6.78, -1.12, -8.43, 2.30, 1.55, 7.27, repro,
2015-04-18,4.40, -2.42, -4.90, 2.28, 1.52, 7.16, repro,
2015-04-19,4.80, -1.65, -3.03, 2.28, 1.52, 7.15, repro,
2015-04-20,4.29, -1.22, -4.70, 2.27, 1.52, 7.12, repro,
2015-04-21,5.84, -1.62, -0.49, 2.29, 1.53, 7.19, repro,
2015-04-22,7.32, -2.40, -0.80, 2.27, 1.53, 7.16, repro,
2015-04-23,5.81, -2.15, -0.58, 2.25, 1.50, 7.19, repro,
2015-04-24,5.04, -2.36, -4.19, 2.23, 1.49, 7.07, repro,
2015-04-25,5.95, -2.68, 1.00, 2.21, 1.48, 7.01, repro,
2015-04-26,4.86, -1.86, -3.82, 2.22, 1.48, 7.01, repro,
2015-04-27,5.68, -2.29, -2.33, 2.24, 1.52, 7.34, repro,
2015-04-28,5.76, -2.74, 2.15, 2.25, 1.50, 7.16, repro,
2015-04-29,6.22, -2.25, -2.95, 2.24, 1.48, 7.04, repro,
2015-04-30,4.45, -3.25, -1.00, 2.28, 1.50, 7.12, repro,
2015-05-01,4.91, -2.75, -5.56, 2.29, 1.51, 7.12, repro,
2015-05-02,5.25, -1.58, -4.76, 2.22, 1.48, 6.99, repro,
2015-05-03,5.26, -2.08, -4.55, 2.23, 1.47, 7.01, repro,
2015-05-04,4.89, -2.37, -5.97, 2.23, 1.47, 7.02, repro,
2015-05-05,4.81, -2.50, -3.86, 2.23, 1.47, 7.03, repro,
2015-05-06,5.85, -4.15, -4.27, 2.33, 1.55, 7.64, repro,
2015-05-07,5.39, -3.25, 0.72, 2.25, 1.50, 7.30, repro,
2015-05-08,6.24, -2.73, 3.82, 2.25, 1.48, 7.06, repro,
2015-05-09,6.05, -2.83, -3.46, 2.25, 1.47, 7.04, repro,
2015-05-10,4.88, -2.23, -1.78, 2.25, 1.48, 7.08, repro,
2015-05-11,5.76, -3.49, -2.91, 2.26, 1.49, 7.14, repro,
2015-05-12,6.60, -2.83, -9.16, 2.33, 1.56, 7.41, repro,
2015-05-13,6.53, -3.39, 0.06, 2.31, 1.53, 7.22, repro,
2015-05-14,4.60, -3.31, -0.26, 2.24, 1.47, 7.02, repro,
2015-05-15,4.50, -2.33, -1.45, 2.23, 1.46, 6.97, repro,
2015-05-16,6.56, -1.44, -7.12, 2.27, 1.51, 7.38, repro,
2015-05-17,5.86, -2.44, -8.23, 2.25, 1.48, 7.08, repro,
2015-05-18,7.56, -2.40, -4.22, 2.25, 1.48, 7.05, repro,
2015-05-19,7.47, -2.84, -2.44, 2.28, 1.49, 7.22, repro,
2015-05-20,5.11, -2.17, -1.47, 2.24, 1.47, 7.03, repro,
2015-05-21,6.04, -1.82, -6.29, 2.26, 1.49, 7.35, repro,
2015-05-22,6.05, -1.06, -2.31, 2.23, 1.48, 7.04, repro,
2015-05-23,7.22, -3.08, -2.41, 2.26, 1.47, 7.08, repro,
2015-05-24,6.27, -2.59, 4.51, 2.24, 1.46, 7.02, repro,
2015-05-25,5.51, -3.08, -0.30, 2.24, 1.46, 6.98, repro,
2015-05-26,4.90, -2.59, 2.69, 2.27, 1.50, 7.39, repro,
2015-05-27,5.83, -2.04, -2.16, 2.28, 1.52, 7.50, repro,
2015-05-28,6.23, -1.10, -4.74, 2.33, 1.53, 7.40, repro,
2015-05-29,6.16, -2.15, -3.88, 2.24, 1.45, 6.99, repro,
2015-05-30,5.99, -3.03, -0.99, 2.24, 1.45, 7.00, repro,
2015-05-31,4.45, -2.06, 0.77, 2.26, 1.48, 7.30, repro,
2015-06-01,4.09, -1.90, 3.50, 2.24, 1.49, 7.31, repro,
2015-06-02,5.55, -1.94, 5.59, 2.27, 1.50, 7.40, repro,
2015-06-03,5.85, -2.09, 7.42, 2.27, 1.49, 7.37, repro,
2015-06-04,4.25, -2.60, 15.47, 2.23, 1.44, 6.96, repro,
2015-06-05,2.30, -3.83, 6.37, 2.29, 1.48, 7.27, repro,
2015-06-06,4.32, -2.28, 4.39, 2.25, 1.49, 7.30, repro,
2015-06-07,4.96, -2.73, 11.39, 2.27, 1.50, 7.42, repro,
2015-06-08,4.85, -2.33, 10.30, 2.31, 1.51, 7.29, repro,
2015-06-09,6.14, -2.44, 4.13, 2.24, 1.46, 7.03, repro,
2015-06-10,4.56, -2.55, 6.16, 2.25, 1.45, 7.04, repro,
2015-06-11,4.00, -3.14, -1.44, 2.34, 1.57, 7.61, repro,
2015-06-12,5.44, -1.97, -9.35, 2.22, 1.46, 7.01, repro,
2015-06-13,6.78, -2.20, -4.51, 2.23, 1.48, 7.09, repro,
2015-06-14,7.95, -3.22, -4.77, 2.25, 1.48, 7.09, repro,
2015-06-15,5.57, -2.67, -1.33, 2.32, 1.49, 7.20, repro,
2015-06-16,4.38, -1.82, -1.54, 2.23, 1.45, 6.98, repro,
2015-06-17,5.62, -1.97, -0.47, 2.31, 1.49, 7.15, repro,
2015-06-18,6.42, -2.53, 3.19, 2.29, 1.51, 7.16, repro,
2015-06-19,5.73, -3.18, 10.69, 2.28, 1.51, 7.16, repro,
2015-06-20,6.47, -2.62, 4.07, 2.22, 1.46, 6.98, repro,
2015-06-21,5.59, -2.13, 3.70, 2.23, 1.46, 7.01, repro,
2015-06-22,5.53, -2.12, 1.38, 2.26, 1.47, 7.04, repro,
2015-06-23,5.13, -1.38, -2.68, 2.55, 1.68, 8.10, repro,
2015-06-24,6.62, -2.25, -0.35, 2.35, 1.54, 7.35, repro,
2015-06-25,6.41, -2.45, 5.35, 2.30, 1.52, 7.45, repro,
2015-06-26,5.10, -1.78, 5.61, 2.26, 1.50, 7.10, repro,
2015-06-27,6.25, -2.51, 3.97, 2.24, 1.47, 7.06, repro,
2015-06-28,7.62, -2.65, 2.23, 2.23, 1.46, 7.03, repro,
2015-06-29,6.06, -2.62, 8.69, 2.23, 1.47, 7.07, repro,
2015-06-30,6.91, -2.35, 5.53, 2.29, 1.49, 7.29, repro,
2015-07-01,7.57, -3.06, 0.42, 2.23, 1.49, 7.24, repro,
2015-07-02,5.74, -1.76, 0.53, 2.23, 1.49, 7.20, repro,
2015-07-03,7.14, -2.28, 1.97, 2.24, 1.46, 7.04, repro,
2015-07-04,6.77, -2.91, -0.88, 2.22, 1.46, 7.01, repro,
2015-07-05,7.64, -1.24, 3.09, 2.22, 1.47, 7.04, repro,
2015-07-06,5.96, -1.44, -3.28, 2.23, 1.47, 7.06, repro,
2015-07-07,6.66, -1.59, -2.72, 2.22, 1.47, 7.03, repro,
2015-07-08,5.37, -1.61, 0.96, 2.22, 1.46, 7.00, repro,
2015-07-09,6.63, -2.32, 3.76, 2.25, 1.46, 7.06, repro,
2015-07-10,6.68, -1.56, 3.16, 2.24, 1.46, 7.04, repro,
2015-07-11,7.06, -2.38, 3.07, 2.28, 1.49, 7.15, repro,
2015-07-12,7.36, -2.61, 4.36, 2.23, 1.47, 7.03, repro,
2015-07-13,7.47, -2.22, 5.28, 2.35, 1.52, 7.32, repro,
2015-07-14,7.43, -2.61, 7.30, 2.23, 1.46, 7.00, repro,
2015-07-15,8.61, -2.65, 8.63, 2.23, 1.46, 7.00, repro,
2015-07-16,8.55, -0.97, 2.73, 2.24, 1.50, 7.29, repro,
2015-07-17,8.67, -2.02, 6.07, 2.28, 1.50, 7.19, repro,
2015-07-18,6.65, -2.51, 5.38, 2.27, 1.49, 7.14, repro,
2015-07-19,7.55, -2.64, 2.07, 2.29, 1.49, 7.17, repro,
2015-07-20,7.40, -2.49, 3.70, 2.28, 1.49, 7.16, repro,
2015-07-21,6.89, -2.10, 4.32, 2.29, 1.49, 7.20, repro,
2015-07-22,8.28, -2.25, 5.09, 2.29, 1.50, 7.23, repro,
2015-07-23,6.32, -2.30, 4.65, 2.32, 1.53, 7.29, repro,
2015-07-24,7.32, -2.60, 10.91, 2.29, 1.49, 7.13, repro,
2015-07-25,4.84, -3.08, 13.35, 2.28, 1.49, 7.16, repro,
2015-07-26,7.63, -3.00, 10.72, 2.26, 1.49, 7.11, repro,
2015-07-27,7.62, -2.86, 9.35, 2.27, 1.48, 7.14, repro,
2015-07-28,8.81, -3.20, 9.71, 2.34, 1.54, 7.28, repro,
2015-07-29,9.18, -2.92, 5.77, 2.33, 1.53, 7.23, repro,
2015-07-30,8.04, -3.51, 7.28, 2.28, 1.49, 7.13, repro,
2015-07-31,6.26, -3.22, 4.13, 2.28, 1.50, 7.16, repro,
2015-08-01,8.59, -2.18, 5.05, 2.28, 1.49, 7.17, repro,
2015-08-02,8.01, -1.54, 4.10, 2.28, 1.49, 7.16, repro,
2015-08-03,8.46, -1.48, 9.11, 2.27, 1.49, 7.11, repro,
2015-08-04,8.29, -1.68, -2.04, 2.28, 1.49, 7.12, repro,
2015-08-05,9.26, -0.79, -3.53, 2.29, 1.50, 7.18, repro,
2015-08-06,7.48, -2.72, 4.89, 2.30, 1.50, 7.21, repro,
2015-08-07,8.13, -1.73, 3.74, 2.29, 1.50, 7.23, repro,
2015-08-08,7.99, -2.30, 4.55, 2.35, 1.52, 7.35, repro,
2015-08-09,7.11, -1.66, 7.95, 2.34, 1.53, 7.28, repro,
2015-08-10,7.34, -2.89, 10.41, 2.28, 1.48, 7.10, repro,
2015-08-11,5.78, -2.48, 7.61, 2.28, 1.49, 7.13, repro,
2015-08-12,8.18, -3.22, 12.26, 2.28, 1.49, 7.14, repro,
2015-08-13,8.60, -2.07, 3.10, 2.28, 1.48, 7.12, repro,
2015-08-14,7.68, -1.70, 3.18, 2.23, 1.46, 6.99, repro,
2015-08-15,6.65, -3.06, 4.30, 2.37, 1.55, 7.63, repro,
2015-08-16,6.53, -3.16, 5.33, 2.27, 1.48, 7.10, repro,
2015-08-17,6.25, -2.68, 8.12, 2.29, 1.49, 7.21, repro,
2015-08-18,6.04, -1.12, 2.57, 2.24, 1.47, 7.05, repro,
2015-08-19,7.62, -1.74, 0.93, 2.28, 1.48, 7.12, repro,
2015-08-20,7.88, -1.66, 1.21, 2.25, 1.46, 7.05, repro,
2015-08-21,8.44, -2.83, 4.96, 2.25, 1.47, 7.07, repro,
2015-08-22,6.25, -2.09, 6.93, 2.26, 1.47, 7.08, repro,
2015-08-23,6.30, -3.02, 12.38, 2.32, 1.52, 7.29, repro,
2015-08-24,7.49, -2.38, 5.05, 2.25, 1.46, 6.97, repro,
2015-08-25,7.91, -2.51, 5.23, 2.30, 1.49, 7.13, repro,
2015-08-26,6.44, -1.64, 4.38, 2.33, 1.51, 7.28, repro,
2015-08-27,7.62, -2.37, 0.73, 2.41, 1.58, 7.59, repro,
2015-08-28,8.35, -2.34, 8.97, 2.37, 1.63, 7.68, repro,
2015-08-29,5.97, -1.89, 11.02, 2.23, 1.46, 6.94, repro,
2015-08-30,6.18, -1.81, 15.38, 2.25, 1.46, 6.98, repro,
2015-08-31,5.43, -2.42, 17.44, 2.24, 1.46, 6.95, repro,
2015-09-01,7.02, -1.82, 11.43, 2.30, 1.50, 7.14, repro,
2015-09-02,6.65, -1.50, 0.98, 2.29, 1.50, 7.11, repro,
2015-09-03,6.53, -2.36, 3.94, 2.25, 1.47, 7.07, repro,
2015-09-04,5.85, -1.60, 4.14, 2.26, 1.48, 7.02, repro,
2015-09-05,6.98, -2.07, 6.80, 2.25, 1.45, 6.96, repro,
2015-09-06,6.57, -2.69, 9.37, 2.25, 1.45, 6.94, repro,
2015-09-07,4.22, -2.03, 6.34, 2.28, 1.47, 7.09, repro,
2015-09-08,6.45, -2.04, 4.39, 2.27, 1.48, 7.09, repro,
2015-09-09,8.25, -1.30, 2.97, 2.67, 1.74, 8.67, repro,
2015-09-10,8.01, -2.29, 11.24, 2.25, 1.46, 7.00, repro,
2015-09-11,6.26, -3.42, 14.28, 2.45, 1.64, 7.89, repro,
2015-09-12,6.67, -2.52, 7.94, 2.25, 1.46, 6.98, repro,
2015-09-13,6.47, -2.46, 2.11, 2.24, 1.46, 6.98, repro,
2015-09-14,6.68, -1.27, 7.38, 2.24, 1.46, 6.97, repro,
2015-09-15,7.32, -2.15, 12.06, 2.25, 1.46, 6.96, repro,
2015-09-16,6.19, -2.75, 11.90, 2.25, 1.46, 6.99, repro,
2015-09-17,7.90, -2.96, 16.17, 2.24, 1.45, 6.91, repro,
2015-09-18,6.89, -0.87, 7.94, 2.25, 1.46, 6.97, repro,
2015-09-19,7.49, -2.38, 12.35, 2.27, 1.47, 7.00, repro,
2015-09-20,7.87, -2.45, 9.73, 2.43, 1.57, 7.66, repro,
2015-09-21,6.28, -1.68, 12.00, 2.25, 1.46, 6.96, repro,
2015-09-22,8.85, -2.75, 17.57, 2.25, 1.46, 6.96, repro,
2015-09-23,7.24, -2.28, 9.77, 2.24, 1.45, 6.91, repro,
2015-09-24,5.65, -1.87, 6.43, 2.23, 1.45, 6.89, repro,
2015-09-25,6.24, -2.60, 11.51, 2.25, 1.46, 6.96, repro,
2015-09-26,8.46, -2.63, 10.29, 2.25, 1.46, 6.97, repro,
2015-09-27,8.34, -2.62, 13.40, 2.24, 1.46, 6.95, repro,
2015-09-28,6.46, -1.93, 9.96, 2.31, 1.51, 7.18, repro,
2015-09-29,5.24, -1.01, 9.72, 2.30, 1.50, 7.07, repro,
2015-09-30,6.73, -2.41, 13.63, 2.35, 1.52, 7.21, repro,
2015-10-01,8.22, -2.58, 3.39, 2.35, 1.53, 7.23, repro,
2015-10-02,9.05, -2.02, -1.28, 2.29, 1.47, 7.08, repro,
2015-10-03,8.62, -1.76, -3.45, 2.24, 1.46, 6.96, repro,
2015-10-04,6.89, -1.94, 2.76, 2.24, 1.46, 6.93, repro,
2015-10-05,6.84, -2.64, 4.08, 2.25, 1.47, 7.00, repro,
2015-10-06,6.82, -1.33, -0.10, 2.25, 1.46, 6.95, repro,
2015-10-07,10.07, -0.59, 7.11, 2.56, 1.64, 8.05, repro,
2015-10-08,8.56, -2.06, 7.27, 2.28, 1.48, 7.05, repro,
2015-10-09,6.44, -2.91, 16.64, 2.24, 1.46, 6.94, repro,
2015-10-10,7.66, -1.95, 13.48, 2.21, 1.46, 6.91, repro,
2015-10-11,8.41, -1.57, 7.52, 2.23, 1.45, 6.93, repro,
2015-10-12,8.79, -2.16, 9.12, 2.25, 1.46, 6.98, repro,
2015-10-13,8.90, -1.83, 4.99, 2.27, 1.46, 7.05, repro,
2015-10-14,10.41, -2.13, 4.00, 2.25, 1.45, 6.97, repro,
2015-10-15,9.62, -3.16, 5.24, 2.23, 1.45, 6.89, repro,